Regional Weather Roundup
Issued by NWS Albany, NY

Home | Current Version | Previous Version | Graphics & Text | Print | Product List | Glossary Off
Versions: 1 2 3 4 5 6 7 8 9 10 11 12 13 14 15 16 17 18 19 20 21 22 23 24 25 26 27 28 29 30 31 32 33 34 35 36 37 38 39 40 41 42 43 44 45 46 47 48 49 50

000
ASUS41 KALY 310310
RWRALY

NEW YORK STATE HOURLY WEATHER ROUNDUP
NATIONAL WEATHER SERVICE ALBANY NY
1000 PM EST FRI JAN 30 2015

NOTE: "FAIR" INDICATES FEW OR NO CLOUDS BELOW 12,000 FEET WITH NO
SIGNIFICANT WEATHER AND/OR NO OBSTRUCTIONS TO VISIBILITY.

NYZ032-033-038>043-046>054-057>066-NYZ062>081-310400-
EAST


CITY           SKY/WX    TMP DP  RH WIND       PRES   REMARKS
ALBANY         PTCLDY    12  -1  56 NW15G24   30.07R WCI  -4
GLENS FALLS    CLEAR     10  -4  53 NW14      30.05R WCI  -6
POUGHKEEPSIE   CLEAR     19   3  49 NW17G29   30.01R WCI   4
NEWBURGH       CLEAR     18   7  62 NW17G29   30.00R WCI   2
MONTGOMERY     MOCLDY    18   5  57 NW14G24   30.00S WCI   4
WHITE PLAINS   CLEAR     19   5  54 NW24G38   29.94R WCI   2
ISLIP          PTCLDY    22   8  55 NW18G29   29.91R WCI   7
NEW YORK CITY  PTCLDY    22   9  57 NW28G36   30.01R WCI   4
CENTRAL PARK   CLEAR     21   5  50 NW16G30   30.02R WCI   7
$$

NYZ005>009-017-018-044>046-055-056-310400-
CENTRAL


CITY           SKY/WX    TMP DP  RH WIND       PRES   REMARKS
FULTON         CLOUDY    12   2  64 N16       30.25R WCI  -5
SYRACUSE       LGT SNOW   9   6  88 N12       30.22S FOG     WCI  -6
ROME           PTCLDY     5  -5  63 NW10      30.22R WCI -10
ELMIRA         CLOUDY    11   1  64 NW8       30.23R WCI  -1
BINGHAMTON     LGT SNOW   8   5  87 NW14G22   30.06F FOG     WCI  -8
MONTICELLO     CLOUDY    12   5  73 NW23G33   29.96F WCI  -7
$$

NYZ026>034-041>043-310400-
NORTH


CITY           SKY/WX    TMP DP  RH WIND       PRES   REMARKS
WATERTOWN      CLEAR     -2  -9  72 CALM      30.28R
FORT DRUM      NOT AVBL
MASSENA        CLEAR      2  -9  60 NW10      30.25R WCI -14
SARANAC LAKE   CLOUDY     0  -6  76 VRB6      30.00S WCI -12
PLATTSBURGH    CLOUDY     7  -4  60 NW13G22   30.11R WCI  -9
$$

NYZ001>004-010>016-019>021-310400-
WEST


CITY           SKY/WX    TMP DP  RH WIND       PRES   REMARKS
NIAGARA FALLS  MOCLDY    11   3  70 NW10      30.35R WCI  -3
BUFFALO        FLURRIES   8   1  73 W8        30.34R WCI  -4
DUNKIRK        CLEAR      9   2  73 NW9       30.39R WCI  -4
JAMESTOWN      CLOUDY     7   1  78 NW9       30.26R WCI  -7
WELLSVILLE     MOCLDY     4  -2  76 NW21G31   30.16R WCI -17
ROCHESTER      CLOUDY    11   2  67 NW10      30.31R WCI  -3
PENN YAN       LGT SNOW  11   3  70 NW10G16   30.23R WCI  -3
$$

             KEY
       WCI = WIND CHILL INDEX
       VSB = VISIBILITY
       HX  = HEAT INDEX
$$



USA.gov is the U.S. government's official web portal to all federal, state and local government web resources and services.